Regional Weather Roundup
Issued by NWS

Home | Current Version | Previous Version | Text Only | Print | Product List | Glossary Off
Versions: 1 2 3 4 5 6 7 8 9 10 11 12 13 14 15 16 17 18 19 20 21 22 23 24 25 26 27 28 29 30 31 32 33 34 35 36 37 38 39 40 41 42 43 44 45 46 47 48 49 50

000
ASUS43 KLMK 141810
RWRKY
KENTUCKY REGIONAL WEATHER ROUNDUP
NATIONAL WEATHER SERVICE LOUISVILLE KY
100 PM EST SUN FEB 14 2016

NOTE "FAIR" INDICATES FEW OR NO CLOUDS BELOW 12,000 FEET
WITH NO SIGNIFICANT WEATHER AND/OR OBSTRUCTIONS TO VISIBILITY.

KYZ001>023-026-027-061>063-070>075-141900-
WESTERN AND SOUTH CENTRAL KENTUCKY

CITY           SKY/WX    TMP DP  RH WIND       PRES   REMARKS
PADUCAH        LGT SNOW  26  21  81 SE12      30.14F WCI  16
HENDERSON      CLOUDY    21  18  86 SE8       30.19F WCI  12
OWENSBORO      LGT SNOW  23  19  85 SE10      30.21F FOG     WCI  12
HOPKINSVILLE   LGT SNOW  23  21  93 E15       30.15F FOG     WCI  10
BOWLING GREEN  SNOW      23  21  92 SE9       30.26F VSB<1/4 WCI  13
GLASGOW        SNOW      23  20  91 SE6       30.26F VSB 1/2 WCI  15
$$

KYZ024-025-028>034-038-045-046-053-141900-
NORTH CENTRAL KENTUCKY

CITY           SKY/WX    TMP DP  RH WIND       PRES   REMARKS
LOUISVILLE/SDF LGT SNOW  22  11  62 SE12      30.27F WCI  10
LOUISVILLE/LOU LGT SNOW  21  11  65 E9        30.27F WCI  11
FORT KNOX      LGT SNOW  21  12  68 SE10      30.23F WCI  10
$$

KYZ035>037-039>044-047>052-055>060-089>105-141900-
NORTHEAST KENTUCKY

CITY           SKY/WX    TMP DP  RH WIND       PRES   REMARKS
LEXINGTON      CLOUDY    19  10  68 E12       30.27F WCI   7
COVINGTON      CLOUDY    19   6  57 SE13      30.29F WCI   6
FRANKFORT      FLURRIES  20  11  68 E12       30.27F WCI   8
$$

KYZ054-064>069-076>088-106>120-141900-
SOUTHEAST KENTUCKY

CITY           SKY/WX    TMP DP  RH WIND       PRES   REMARKS
JACKSON        CLOUDY    19   9  65 VRB5      30.30F WCI  12
LONDON         CLOUDY    21  12  68 SE7       30.27F WCI  12
SOMERSET       CLOUDY    21  14  73 SE5       30.29F WCI  15
MIDDLESBORO    CLOUDY    24   7  48 CALM      30.31F
MONTICELLO     FLURRIES  24  15  68 SE7       30.29F WCI  16
$$




USA.gov is the U.S. government's official web portal to all federal, state and local government web resources and services.